Weather in Andreyevka

Russia / Orenburg Oblast     51°56′10″N   56°38′23″E
temp.,
°C
wind,
m/s
gust,
m/s
humid.,
%
clouds,
%
prec.,
mm/h
press.,
hPa
HPBL,
m
28 february, sun
sun2823:00−3sse2498100 1.6 1003116
02:00−1sse2599100 0.9 1002277
05:000sw3799100 2.5 1001387
08:00−1sw4798100 0.9 1000437
11:00−1sw4798100 2.3 1000484
14:00−1sw58100100 1.4 1001603
17:00−1w3692100 1.9 1003496
20:00−5wsw589795 0.1 1006331
1 march, mon
mon123:00−10sw369698 0.4 1009276
02:00−14ssw3497100 0.2 1011116
05:00−15s249799 0.4 1013100
08:00−16s239799 0.1 101553
11:00−13sw339399 0.3 1017266
14:00−12wsw3491100 0.1 1017391
17:00−11wsw3594100 0.3 1018419
20:00−14wsw3497100 0.2 102091
2 march, tue
tue223:00−16wsw229998 0.3 102122
02:00−19wsw22100100 0.1 102121
05:00−22sw22100100 0.1 102120
08:00−24ssw22100100 0.1 102121
11:00−21ssw35100100 0.1 1020225
14:00−17ssw5797100 0.0 1018318
17:00−15s61095100 0.1 1016413
20:00−13ssw61395100 0.8 1013548
3 march, wed
wed323:00−9ssw61495100 1.7 1011591
02:00−5sw71396100 1.7 1008721
05:00−4sw71396100 3.7 1006671
08:00−4sw61197100 2.0 1005609
11:00−3sw6997100 3.5 1005623
14:00−2sw5898100 1.3 1004602
17:00−1sw4797100 2.5 1004508
20:00−3sw2598100 0.9 1004180
4 march, thu
thu423:00−4w1298100 1.7 100542
02:00−8nw229798 0.3 100523
05:00−10nw119899 0.3 100621
08:00−13wnw129994 0.0 100821
11:00−11wnw239485 0.1 1010208
14:00−9w369393 0.0 1011364
17:00−8wsw479496 0.1 1012513
20:00−8sw51196100 0.1 1012488